Location: Grums
(59.3529°N, 13.1129°E)
Time: 21:39:54
(UTC+01:00)

FO-99 - Pass Details

Date: 05 December 2021
Orbit: 469 x 498 km, 97.2° (Epoch: 20 January)

Event Time Altitude Azimuth Distance (km) Brightness Sun altitude
Rises 07:18:54 0° 27° (NNE) 2,534 ? -9.5°
Reaches altitude 10° 07:22:04 10° 59° (ENE) 1,645 ? -9.2°
Maximum altitude 07:23:35 12° 85° (E) 1,504 ? -9.0°
Drops below altitude 10° 07:25:05 10° 110° (ESE) 1,638 ? -8.8°
Sets 07:28:13 0° 142° (SE) 2,509 ? -8.5°
